Wind_Speed
21 23 25 29 30 30 25 22 21 17 16 18 20 19 21 19 15 20 21 18 17 21 24 20 16 17 16 19 19 16 17 14 10 9 8 6 4 4 5 7 10 13 15
21 24 26 28 29 29 27 23 20 19 19 21 22 24 23 21 21 23 23 19 19 22 28 25 21 20 20 18 21 20 18 15 11 11 12 9 7 6 7 7 8 11 13
23 24 25 26 27 26 24 22 21 23 24 25 25 25 22 23 24 23 25 23 21 24 26 24 24 24 21 22 19 20 17 17 15 14 15 16 13 11 11 11 10 11 12
23 26 26 24 24 23 22 22 24 26 26 25 23 20 19 22 23 23 21 24 24 26 23 25 25 25 22 23 24 23 21 20 18 17 17 16 14 14 14 14 12 13 13
22 25 28 28 24 23 24 26 28 28 26 23 21 19 20 21 21 20 20 22 23 22 24 26 26 26 27 27 29 27 23 20 18 18 17 16 15 15 15 16 15 14 14
24 24 26 28 27 26 26 27 26 25 24 24 22 21 22 22 20 22 25 24 23 22 26 30 29 30 28 29 28 25 24 20 20 21 18 18 16 16 17 19 18 16 16
26 25 26 28 29 28 27 23 21 20 20 20 20 20 21 20 18 21 25 26 26 27 29 32 33 32 30 27 24 24 27 25 23 24 22 20 20 18 18 19 19 18 16
29 28 28 27 27 27 22 19 19 19 18 17 18 18 19 18 15 16 20 21 20 20 21 27 28 26 28 30 28 28 26 27 26 27 26 24 25 23 21 20 19 18 17
31 30 30 30 23 20 17 16 17 17 15 15 14 15 16 17 17 15 17 20 18 17 21 28 27 27 29 31 34 31 28 26 27 28 27 27 26 24 22 23 21 20 19
26 27 27 28 21 17 15 15 16 16 15 15 14 15 16 15 17 19 19 20 21 22 21 20 29 30 31 31 29 28 30 28 28 29 30 30 27 24 23 22 23 22 20
23 23 22 20 17 16 15 15 15 15 14 15 18 18 18 17 14 17 20 22 24 25 24 23 27 28 28 30 30 27 25 23 24 25 29 31 28 24 23 21 23 24 24
22 25 22 19 18 16 15 15 16 15 16 17 18 19 20 19 18 16 19 21 21 24 26 29 28 24 25 27 25 24 21 20 21 21 23 27 26 22 20 18 20 23 26
24 27 25 24 22 20 17 17 19 19 21 21 20 20 20 20 19 16 17 20 19 17 16 21 23 23 20 20 19 20 21 21 22 23 23 23 20 19 19 18 19 20 21
27 28 27 25 23 22 21 21 24 26 27 27 25 23 22 20 17 15 17 19 22 21 20 25 22 21 22 24 21 18 20 22 22 22 21 20 21 22 20 19 19 21 22
23 19 21 21 22 23 24 26 28 30 31 30 28 26 25 23 21 21 20 19 21 25 24 23 21 20 18 18 20 22 22 23 24 23 22 22 22 23 22 20 21 22 23
23 19 20 18 20 23 26 28 30 30 29 28 29 27 26 25 24 25 26 24 23 23 23 21 18 21 20 18 18 20 24 22 24 25 24 22 22 23 23 21 19 20 22
22 18 16 16 19 22 25 27 29 29 27 25 28 30 29 28 26 25 26 28 26 24 23 23 20 20 23 23 21 19 19 20 23 27 28 27 25 26 24 23 21 21 22
16 17 19 21 24 27 28 28 25 23 24 25 28 30 30 28 26 27 29 30 30 27 24 22 21 21 23 26 24 22 23 22 20 23 26 31 31 27 27 26 23 23 24
18 22 24 26 29 30 28 24 22 22 23 23 23 25 26 26 25 28 31 31 29 26 25 23 21 21 21 25 28 23 22 23 21 21 21 22 31 28 27 26 26 25 25
21 22 24 26 27 26 24 24 23 23 23 22 22 23 24 25 27 31 34 32 29 26 27 27 24 23 22 21 25 29 26 25 23 23 21 19 22 27 28 28 28 27 26
20 20 22 23 23 24 23 23 23 23 23 24 25 26 26 26 27 31 33 32 26 21 21 25 27 25 24 23 22 23 26 26 26 26 23 21 21 25 29 30 29 29 29
18 18 19 20 21 22 23 22 23 23 24 25 26 26 27 27 27 29 29 28 27 21 23 22 24 26 26 25 25 21 22 26 29 30 29 28 28 29 29 28 27 28 29
16 17 18 19 21 22 23 23 23 22 22 22 24 25 27 29 30 31 31 28 27 22 22 24 26 27 25 24 25 23 25 27 25 26 28 30 31 30 29 29 29 30 31
15 16 18 20 22 23 24 23 20 19 20 21 21 23 24 25 28 33 30 26 22 19 21 24 25 25 25 24 23 22 22 23 23 24 26 29 33 32 30 31 30 29 30
14 15 16 19 21 24 23 20 17 15 17 16 17 16 15 16 20 23 22 17 18 19 20 21 21 22 23 24 21 21 21 20 21 22 25 27 29 33 33 31 31 30 30
11 12 14 17 20 21 18 17 14 14 15 15 14 12 11 12 11 5 10 15 17 17 17 18 19 21 22 23 22 22 22 21 22 21 21 21 23 26 27 28 29 29 29
Wind_Direction
308 315 318 320 320 320 319 306 295 290 287 295 298 285 291 275 258 247 264 253 243 238 229 228 219 211 208 210 206 212 226 233 227 237 248 231 224 223 209 203 207 213 220
314 316 313 312 314 315 314 309 293 287 292 294 289 285 291 288 284 262 254 249 238 234 227 222 223 221 228 216 202 213 231 235 235 239 237 247 244 245 246 237 229 227 228
311 307 304 306 310 308 306 303 292 286 291 292 285 286 282 281 278 270 251 240 234 233 225 226 223 220 216 215 211 227 237 238 240 238 248 259 249 254 243 247 245 242 238
304 302 303 302 304 303 301 300 296 294 295 293 289 286 283 286 278 264 251 239 233 227 224 224 222 218 221 233 230 223 231 237 242 247 250 248 249 254 247 242 239 241 246
305 310 311 308 299 293 294 295 294 291 290 291 291 293 293 295 283 253 241 242 231 226 228 229 226 226 230 233 230 232 241 239 251 249 245 240 245 250 248 242 237 238 247
305 308 310 308 302 297 295 293 291 287 283 280 282 287 288 293 281 251 232 227 227 233 231 222 217 222 226 223 221 229 242 240 242 248 247 241 243 252 249 247 247 247 247
301 304 304 306 304 301 299 296 293 292 291 288 284 285 286 287 274 251 231 224 223 232 233 215 218 226 224 219 232 231 231 236 240 242 247 247 245 255 258 252 248 254 258
304 303 298 298 299 295 294 296 299 298 296 294 293 286 282 279 272 264 245 232 229 235 219 220 224 227 220 221 236 232 230 235 236 236 240 241 246 256 263 256 248 247 254
296 295 296 299 297 287 289 293 298 296 299 296 295 296 287 278 268 261 252 248 263 246 233 233 233 242 236 227 229 230 232 243 246 243 244 242 241 249 254 249 245 244 245
289 287 289 290 293 287 288 294 299 301 303 295 291 293 287 277 262 256 253 257 262 256 250 250 241 248 239 241 244 247 244 243 245 245 244 240 243 244 250 248 250 251 251
305 309 296 283 281 284 291 297 301 304 300 291 285 282 282 285 278 262 256 251 258 257 248 244 245 239 240 246 242 243 234 240 242 244 241 237 241 241 243 249 254 252 249
294 306 305 295 282 279 288 294 296 298 298 297 292 286 282 278 274 265 250 254 258 257 263 237 241 243 236 235 233 232 229 238 240 235 227 232 239 233 234 240 243 251 244
304 306 305 297 286 277 281 291 298 299 296 293 290 285 282 277 272 258 252 252 257 277 263 243 250 240 239 237 237 234 232 239 235 228 221 225 230 232 231 234 239 241 245
312 309 302 293 281 275 282 293 297 297 295 293 291 287 284 281 281 273 267 259 260 268 267 264 257 246 259 245 232 231 237 239 242 237 228 225 228 231 229 231 232 232 238
308 302 292 291 286 282 287 293 295 294 293 292 291 288 285 282 286 284 278 272 261 262 264 260 256 257 265 258 241 235 237 238 239 240 233 229 224 232 233 230 231 233 235
294 283 282 290 290 292 294 295 291 289 290 290 289 288 285 283 282 279 276 271 264 261 264 270 262 249 249 251 249 246 233 230 236 236 231 231 230 232 231 222 222 227 233
289 285 288 290 293 293 292 290 285 287 288 285 283 283 282 280 278 271 268 267 271 268 259 257 256 251 247 243 242 240 231 229 233 234 233 230 228 228 222 220 224 228 239
287 286 286 290 294 295 295 292 285 278 275 276 274 274 275 274 270 266 265 267 272 271 261 254 251 250 250 240 234 235 231 226 229 232 232 229 222 221 226 230 231 230 237
290 289 291 294 297 300 300 295 288 283 276 271 271 274 275 275 271 270 270 272 275 272 266 256 249 246 243 238 233 234 231 225 225 227 224 232 217 213 221 228 232 230 232
295 293 292 294 297 298 298 295 291 285 280 278 277 276 275 275 272 269 267 266 266 267 268 255 244 241 238 239 240 236 234 224 221 223 213 208 214 217 225 232 236 235 233
301 300 298 298 301 302 301 298 294 289 284 282 284 283 277 272 268 265 263 262 250 252 262 250 236 236 235 234 240 237 232 234 232 227 221 224 226 227 231 232 233 234 234
305 303 301 302 307 308 306 302 298 294 290 287 283 280 277 274 269 263 260 256 257 259 261 253 236 234 233 232 237 239 241 235 235 232 230 231 236 237 234 232 234 239 241
308 307 306 311 312 310 306 304 300 298 296 291 286 281 277 273 270 268 262 255 259 252 246 238 231 231 235 235 240 241 249 253 246 233 229 233 238 235 232 231 234 240 241
312 314 315 315 313 313 315 316 310 301 300 300 294 289 284 281 276 272 264 250 238 227 226 230 228 227 232 235 238 241 247 244 247 244 242 243 238 235 237 238 243 245 245
314 319 323 322 324 329 331 330 324 314 314 310 307 301 295 297 292 274 259 235 216 209 217 224 222 223 228 236 238 233 234 239 244 245 247 246 242 244 245 245 247 246 245
324 331 335 338 343 343 338 337 335 331 333 338 344 343 341 341 341 292 213 202 202 204 211 220 222 223 223 229 230 225 228 236 243 243 243 245 245 247 247 247 247 247 245
Height
5853 5851 5848 5845 5842 5839 5838 5837 5834 5833 5832 5831 5829 5828 5827 5827 5826 5825 5825 5826 5828 5829 5829 5833 5839 5840 5842 5842 5844 5847 5848 5848 5849 5851 5854 5856 5856 5856 5857 5859 5860 5861 5863
5847 5844 5842 5839 5836 5834 5833 5831 5829 5828 5828 5827 5826 5824 5821 5821 5821 5820 5820 5820 5823 5824 5823 5829 5834 5836 5838 5839 5840 5845 5845 5846 5847 5848 5851 5854 5856 5855 5856 5857 5858 5860 5860
5842 5840 5837 5833 5831 5830 5829 5827 5825 5824 5824 5824 5822 5819 5817 5815 5814 5813 5813 5815 5817 5818 5820 5823 5828 5832 5834 5835 5836 5838 5840 5843 5845 5847 5849 5849 5851 5854 5856 5856 5858 5858 5858
5838 5835 5833 5829 5827 5825 5823 5822 5821 5819 5818 5817 5816 5815 5813 5811 5808 5807 5807 5808 5812 5812 5814 5817 5821 5826 5829 5830 5832 5835 5838 5840 5842 5844 5847 5848 5849 5851 5853 5855 5857 5856 5856
5833 5827 5825 5823 5823 5821 5820 5818 5815 5813 5811 5810 5810 5810 5808 5806 5804 5802 5803 5806 5807 5808 5810 5812 5815 5819 5822 5824 5827 5831 5834 5836 5838 5839 5842 5844 5846 5847 5848 5850 5853 5854 5853
5826 5822 5819 5817 5815 5815 5814 5812 5809 5807 5805 5805 5805 5805 5804 5802 5800 5798 5798 5801 5803 5805 5806 5809 5811 5814 5816 5818 5821 5824 5829 5832 5834 5836 5838 5839 5842 5844 5844 5846 5848 5850 5849
5821 5819 5816 5812 5809 5807 5806 5805 5803 5801 5799 5798 5798 5799 5797 5796 5795 5794 5795 5797 5799 5801 5802 5805 5807 5808 5810 5813 5815 5818 5822 5827 5829 5830 5833 5835 5837 5839 5840 5841 5843 5844 5845
5816 5814 5811 5808 5805 5802 5801 5799 5797 5795 5794 5793 5793 5793 5792 5791 5791 5790 5791 5794 5795 5796 5797 5799 5802 5804 5805 5807 5811 5814 5817 5820 5823 5825 5828 5830 5832 5833 5835 5836 5838 5839 5841
5812 5809 5805 5801 5800 5799 5797 5795 5793 5791 5790 5790 5788 5787 5787 5786 5786 5787 5787 5788 5790 5792 5793 5795 5797 5799 5802 5802 5803 5806 5809 5814 5817 5819 5821 5825 5827 5828 5830 5832 5834 5836 5837
5807 5804 5801 5796 5795 5795 5793 5790 5787 5785 5784 5784 5784 5783 5781 5781 5781 5782 5783 5784 5784 5784 5786 5787 5791 5793 5795 5797 5798 5799 5802 5807 5810 5813 5813 5817 5820 5824 5825 5827 5829 5831 5833
5801 5798 5796 5793 5790 5789 5788 5786 5784 5782 5781 5781 5781 5780 5778 5776 5776 5776 5778 5778 5779 5779 5780 5783 5785 5786 5788 5791 5792 5792 5796 5799 5801 5804 5805 5809 5814 5817 5819 5822 5823 5825 5826
5796 5793 5791 5788 5786 5785 5784 5783 5781 5779 5777 5777 5776 5776 5775 5773 5773 5772 5773 5774 5774 5774 5774 5775 5778 5780 5780 5782 5784 5786 5789 5792 5794 5797 5800 5803 5807 5810 5812 5815 5817 5817 5819
5791 5787 5785 5783 5781 5780 5779 5778 5776 5775 5773 5772 5772 5771 5770 5768 5768 5768 5768 5769 5769 5769 5769 5770 5773 5774 5774 5775 5777 5779 5783 5787 5789 5792 5795 5798 5800 5804 5805 5808 5811 5812 5814
5786 5782 5777 5776 5775 5774 5773 5772 5771 5770 5768 5766 5766 5766 5765 5764 5762 5761 5761 5762 5763 5763 5764 5764 5765 5767 5769 5769 5771 5775 5777 5781 5783 5786 5790 5793 5795 5798 5800 5803 5806 5808 5809
5780 5777 5772 5771 5770 5768 5768 5767 5766 5764 5761 5760 5759 5759 5758 5757 5756 5755 5755 5755 5757 5759 5759 5759 5758 5760 5761 5762 5766 5769 5770 5774 5777 5782 5785 5787 5790 5793 5796 5799 5801 5803 5804
5773 5772 5769 5767 5766 5764 5763 5761 5759 5756 5754 5751 5750 5750 5750 5749 5749 5748 5747 5748 5748 5750 5750 5750 5751 5753 5754 5756 5759 5761 5763 5766 5770 5774 5777 5780 5784 5787 5790 5793 5795 5796 5799
5765 5766 5765 5764 5763 5761 5758 5756 5752 5749 5748 5747 5744 5741 5741 5741 5741 5741 5740 5739 5739 5740 5742 5743 5744 5745 5747 5749 5752 5755 5759 5761 5763 5767 5770 5773 5777 5780 5784 5788 5790 5791 5793
5760 5760 5759 5759 5757 5755 5752 5748 5745 5744 5742 5741 5738 5735 5733 5733 5733 5733 5732 5731 5730 5732 5735 5737 5738 5738 5740 5742 5745 5748 5752 5756 5758 5760 5763 5765 5769 5773 5777 5780 5783 5785 5786
5756 5755 5752 5750 5748 5745 5742 5740 5738 5735 5733 5732 5730 5727 5725 5723 5723 5724 5723 5722 5722 5724 5726 5729 5731 5733 5735 5736 5740 5742 5745 5748 5751 5754 5757 5758 5760 5765 5769 5772 5775 5778 5780
5751 5749 5746 5744 5742 5739 5736 5732 5730 5727 5725 5723 5722 5720 5719 5717 5715 5714 5713 5712 5714 5716 5718 5721 5724 5727 5728 5730 5733 5737 5739 5741 5745 5749 5750 5752 5754 5757 5761 5764 5767 5770 5773
5746 5743 5740 5738 5735 5731 5728 5725 5722 5719 5717 5715 5712 5710 5709 5708 5706 5704 5703 5704 5705 5706 5709 5712 5716 5720 5721 5723 5727 5730 5733 5735 5737 5740 5742 5745 5748 5751 5754 5757 5760 5763 5766
5741 5738 5735 5732 5729 5725 5721 5717 5714 5710 5707 5705 5702 5700 5698 5697 5696 5695 5695 5697 5695 5698 5700 5704 5708 5713 5715 5717 5721 5724 5726 5727 5729 5732 5735 5738 5742 5746 5748 5749 5751 5754 5757
5736 5734 5731 5727 5724 5720 5715 5711 5706 5703 5700 5696 5693 5691 5688 5687 5685 5684 5685 5685 5685 5691 5694 5696 5700 5705 5708 5711 5714 5718 5720 5721 5722 5724 5728 5732 5735 5739 5740 5743 5745 5747 5749
5732 5730 5727 5723 5719 5714 5709 5704 5699 5696 5693 5689 5685 5682 5679 5677 5676 5674 5674 5676 5681 5685 5688 5690 5694 5699 5702 5705 5708 5712 5714 5716 5718 5720 5723 5726 5727 5730 5733 5735 5737 5738 5740
5728 5726 5723 5719 5714 5708 5702 5698 5694 5691 5688 5684 5680 5676 5672 5670 5666 5663 5664 5667 5673 5678 5682 5686 5689 5693 5696 5699 5702 5705 5708 5710 5712 5715 5717 5719 5720 5722 5724 5726 5728 5729 5731
5725 5723 5720 5716 5711 5705 5701 5697 5693 5689 5685 5680 5675 5672 5669 5665 5661 5659 5661 5665 5670 5675 5679 5682 5685 5689 5692 5694 5697 5700 5703 5705 5708 5709 5711 5711 5712 5713 5715 5717 5719 5720 5721